sat.trackr.live / text

‹ back to catalog

STARLINK-34578

NORAD 64856 · 2025-152Q

PAYLOAD ACTIVE UNKNOWN

§ Identity

Operator
Country
US
Launch date
2025-07-19
Launch site
AFWTR
Launch vehicle
Mass (kg)
RCS (m²)

Purposes: comms

External: N2YO · Heavens-Above · Gunter

§ Orbital elements

Epoch: 2026-05-25T03:00:21.256128Z

Period
95.64 min
Inclination
97.4493°
Eccentricity
0.0002667
Mean motion
15.05656817 rev/d
Perigee alt
547.6 km
Apogee alt
551.3 km
Semi-major
6,927.6 km
B*
3.4899e-4
RAAN
0.5499°
Arg perigee
84.2428°
Mean anomaly
275.9103°
Rev number
4,692

§ Raw data

STARLINK-345781 64856U 25152Q   26145.12524602  .00004982  00000+0  34899-3 0  99922 64856  97.4493   0.5499 0002667  84.2428 275.9103 15.05656817 46925

JSON: /api/v1/satellites/64856 · /tle

For live sub-satellite position, see the globe view (requires WebGL).

§ Visibility from observer

Set your observer location to see the next 7 days of passes ≥ 10°. The values pass through the URL so the page stays shareable.

No JS? Fill the form by hand. The geolocation button needs JavaScript.